Location: Monfort
(47.1967°N, 0.2115°W)
Time: 11:21:31
(UTC+00:00)

Cosmos 2227 Rocket - Pass Details

Date: 24 October 2020
Orbit: 839 x 845 km, 71.0° (Epoch: 27 November)

Event Time Altitude Azimuth Distance (km) Brightness Sun altitude
Rises 19:48:54 0° 326° (NNW) 3,407 6.0 -29.7°
Reaches altitude 10° 19:51:30 10° 319° (NW) 2,469 5.3 -30.2°
Maximum altitude 19:56:38 37° 254° (WSW) 1,294 3.5 -31.0°
Enters shadow 19:58:43 28° 213° (SSW) 1,548 3.6 -31.3°
